CW8198 Weather Reports


time (UTC)temp
C
wind
direction
speed
KPH
gust
KPH
rain 1hr
cm
rain 24hr
cm
rain mn
cm
humidity
%
barometer
mb
20260508052602 8 321 1.6 4.8 0.00 0.00 0.00 76 1009.5
20260508052102 8 22 1.6 3.2 0.00 0.00 0.00 75 1009.5
20260508051602 8 9 1.6 3.2 0.00 0.00 0.00 75 1009.5
20260508051101 8 330 1.6 3.2 0.00 0.00 0.00 75 1009.6
20260508045601 8 221 1.6 3.2 0.00 0.00 0.00 73 1009.6
20260508045101 8 115 1.6 3.2 0.00 0.00 0.00 72 1009.7
20260508044601 8 282 0.0 1.6 0.00 0.00 0.00 70 1009.7
20260508044100 8 51 0.0 1.6 0.00 0.00 0.00 70 1009.8
20260508043050 8 291 1.6 3.2 0.00 0.00 0.00 68 1009.7
20260508042553 8 205 0.0 3.2 0.00 0.00 0.00 67 1009.7
20260508042050 9 325 1.6 3.2 0.00 0.00 0.00 66 1009.6
20260508041550 9 309 1.6 3.2 0.00 0.00 0.00 65 1009.8
20260508041049 9 153 1.6 3.2 0.00 0.00 0.00 64 1009.7
20260508040550 9 119 1.6 3.2 0.00 0.00 0.00 65 1009.8
20260508040049 9 9 1.6 3.2 0.00 0.00 0.00 64 1009.8
20260508035549 10 279 1.6 3.2 0.00 0.00 0.00 64 1009.8
20260508035049 10 309 1.6 3.2 0.00 0.00 0.00 63 1009.7
20260508034548 10 9 0.0 3.2 0.00 0.00 0.00 62 1009.5
20260508034049 10 51 0.0 3.2 0.00 0.00 0.00 62 1009.6
20260508033548 10 108 3.2 3.2 0.00 0.00 0.00 62 1009.6
20260508032547 10 149 1.6 3.2 0.00 0.00 0.00 59 1009.6
20260508032048 10 158 1.6 3.2 0.00 0.00 0.00 58 1009.6
20260508031546 11 9 0.0 1.6 0.00 0.00 0.00 57 1009.6
20260508031041 11 325 0.0 1.6 0.00 0.00 0.00 55 1009.7
20260508030537 11 309 0.0 1.6 0.00 0.00 0.00 53 1009.6
20260508030036 11 309 0.0 1.6 0.00 0.00 0.00 51 1009.6
20260508025035 12 291 0.0 1.6 0.00 0.00 0.00 49 1009.5
20260508024535 12 309 0.0 1.6 0.00 0.00 0.00 47 1009.4
20260508024035 13 9 0.0 1.6 0.00 0.00 0.00 45 1009.5
20260508023530 13 238 0.0 1.6 0.00 0.00 0.00 44 1009.3
20260508022529 14 221 0.0 3.2 0.00 0.00 0.00 42 1009.3
20260508022029 15 119 0.0 3.2 0.00 0.00 0.00 41 1009.2
20260508021029 16 51 0.0 3.2 0.00 0.00 0.00 38 1009.1
20260508020527 16 221 1.6 4.8 0.00 0.00 0.00 36 1008.9
20260508020022 17 265 1.6 4.8 0.00 0.00 0.00 33 1008.9
20260508015522 17 47 1.6 4.8 0.00 0.00 0.00 31 1008.7
20260508015022 17 44 3.2 6.4 0.00 0.00 0.00 31 1008.8
20260508014522 17 22 3.2 6.4 0.00 0.00 0.00 30 1008.8
20260508013521 16 9 3.2 6.4 0.00 0.00 0.00 31 1008.8
20260508012521 17 34 3.2 6.4 0.00 0.00 0.00 33 1008.8
20260508011520 17 338 4.8 6.4 0.00 0.00 0.00 34 1008.6
20260508010519 17 342 4.8 12.9 0.00 0.00 0.00 33 1008.4
20260508010020 18 23 4.8 12.9 0.00 0.00 0.00 33 1008.3
20260508005520 18 26 6.4 14.5 0.00 0.00 0.00 33 1008.3
20260508005019 18 341 6.4 14.5 0.00 0.00 0.00 33 1008.2
20260508004517 18 336 8.0 16.1 0.00 0.00 0.00 33 1008.2
20260508004018 19 24 6.4 16.1 0.00 0.00 0.00 33 1008.2
20260508003016 20 335 6.4 12.9 0.00 0.00 0.00 31 1008.1
20260508002516 20 341 6.4 14.5 0.00 0.00 0.00 31 1008.0
20260508002015 20 346 6.4 14.5 0.00 0.00 0.00 30 1008.1
20260508001515 20 341 6.4 14.5 0.00 0.00 0.00 32 1008.1
20260508000515 21 329 8.0 19.3 0.00 0.00 0.00 30 1008.0
20260507235515 21 325 3.2 16.1 0.00 0.00 0.00 31 1008.0
20260507234513 22 286 4.8 12.9 0.00 0.00 0.00 29 1007.9
20260507234015 22 291 4.8 19.3 0.00 0.00 0.00 30 1008.0
20260507233513 22 234 6.4 19.3 0.00 0.00 0.00 30 1008.0
20260507233013 22 9 6.4 16.1 0.00 0.00 0.00 29 1008.0
20260507232513 22 298 6.4 17.7 0.00 0.00 0.00 29 1008.0
20260507232013 22 304 6.4 17.7 0.00 0.00 0.00 31 1007.9
20260507231512 22 273 8.0 16.1 0.00 0.00 0.00 28 1008.0
20260507231012 22 22 3.2 16.1 0.00 0.00 0.00 29 1008.1
20260507230511 22 350 8.0 19.3 0.00 0.00 0.00 30 1007.8
20260507225511 23 309 9.7 20.9 0.00 0.00 0.00 30 1007.9
20260507225011 23 342 9.7 19.3 0.00 0.00 0.00 28 1007.8
20260507224510 24 336 6.4 14.5 0.00 0.00 0.00 29 1007.9
20260507224012 24 20 6.4 20.9 0.00 0.00 0.00 28 1007.8
20260507223510 24 316 8.0 20.9 0.00 0.00 0.00 29 1007.9
20260507223009 24 330 8.0 17.7 0.00 0.00 0.00 28 1007.9
20260507222509 24 273 3.2 16.1 0.00 0.00 0.00 28 1008.0
20260507222009 23 300 4.8 17.7 0.00 0.00 0.00 31 1007.9
20260507221508 23 291 3.2 22.5 0.00 0.00 0.00 29 1007.9
20260507220508 24 314 8.0 17.7 0.00 0.00 0.00 28 1007.9
20260507220007 23 15 8.0 16.1 0.00 0.00 0.00 31 1007.9
20260507215007 23 259 9.7 20.9 0.00 0.00 0.00 28 1007.8
20260507214506 23 298 6.4 20.9 0.00 0.00 0.00 32 1007.9
20260507214007 24 247 8.0 20.9 0.00 0.00 0.00 28 1007.9
20260507213506 24 11 6.4 20.9 0.00 0.00 0.00 30 1008.0
20260507213006 24 330 6.4 20.9 0.00 0.00 0.00 31 1007.9
20260507212505 24 342 6.4 17.7 0.00 0.00 0.00 29 1008.1
20260507211505 24 271 8.0 32.2 0.00 0.00 0.00 31 1008.1
20260507211004 24 334 9.7 20.9 0.00 0.00 0.00 30 1008.2
20260507210504 24 329 4.8 19.3 0.00 0.00 0.00 29 1008.2
20260507210005 24 11 11.3 22.5 0.00 0.00 0.00 30 1008.3
20260507205503 25 321 9.7 22.5 0.00 0.00 0.00 30 1008.3
20260507205003 25 291 11.3 17.7 0.00 0.00 0.00 29 1008.4
20260507204004 24 351 6.4 17.7 0.00 0.00 0.00 32 1008.4
20260507203501 24 296 6.4 17.7 0.00 0.00 0.00 30 1008.5
20260507203001 24 9 6.4 22.5 0.00 0.00 0.00 32 1008.6
20260507202500 23 351 6.4 22.5 0.00 0.00 0.00 32 1008.6
20260507202001 23 9 4.8 17.7 0.00 0.00 0.00 32 1008.6
20260507201500 23 323 8.0 17.7 0.00 0.00 0.00 36 1008.6
20260507201000 23 23 4.8 17.7 0.00 0.00 0.00 34 1008.6
20260507200500 23 298 6.4 17.7 0.00 0.00 0.00 31 1008.7
20260507195959 23 11 6.4 17.7 0.00 0.00 0.00 30 1008.7
20260507195500 23 255 6.4 19.3 0.00 0.00 0.00 35 1008.7
20260507194458 22 252 6.4 22.5 0.00 0.00 0.00 36 1008.6
20260507193959 22 249 12.9 22.5 0.00 0.00 0.00 31 1008.8
20260507193459 23 250 14.5 20.9 0.00 0.00 0.00 31 1008.7
20260507192957 22 302 8.0 20.9 0.00 0.00 0.00 38 1008.7
20260507192457 22 279 9.7 19.3 0.00 0.00 0.00 41 1008.7
20260507191457 22 242 9.7 20.9 0.00 0.00 0.00 36 1008.8
20260507190956 22 240 6.4 25.7 0.00 0.00 0.00 37 1008.7
20260507190457 22 286 6.4 25.7 0.00 0.00 0.00 41 1008.9
20260507185955 22 309 11.3 20.9 0.00 0.00 0.00 38 1008.9
20260507185457 22 9 4.8 19.3 0.00 0.00 0.00 35 1008.8
20260507184455 21 223 9.7 22.5 0.00 0.00 0.00 37 1009.0
20260507183956 21 294 11.3 29.0 0.00 0.00 0.00 37 1008.9
20260507183455 21 257 11.3 29.0 0.00 0.00 0.00 40 1009.1
20260507182453 20 243 8.0 19.3 0.00 0.00 0.00 37 1009.1
20260507181953 21 254 11.3 19.3 0.00 0.00 0.00 35 1009.2
20260507181453 21 216 8.0 25.7 0.00 0.00 0.00 40 1009.3
20260507180952 21 261 8.0 25.7 0.00 0.00 0.00 39 1009.4
20260507180452 20 267 12.9 25.7 0.00 0.00 0.00 41 1009.3
20260507175952 20 273 14.5 24.1 0.00 0.00 0.00 38 1009.5
20260507175452 20 238 11.3 25.7 0.00 0.00 0.00 37 1009.6
20260507173951 19 291 6.4 24.1 0.00 0.00 0.00 46 1009.6
20260507173450 19 240 14.5 25.7 0.00 0.00 0.00 39 1009.7
20260507172950 19 241 12.9 25.7 0.00 0.00 0.00 40 1009.8
20260507172450 19 230 8.0 27.4 0.00 0.00 0.00 42 1009.9
20260507171949 18 309 11.3 27.4 0.00 0.00 0.00 42 1010.0
20260507171448 18 236 12.9 24.1 0.00 0.00 0.00 39 1010.0
20260507170948 18 238 11.3 27.4 0.00 0.00 0.00 40 1010.0
20260507170448 18 196 14.5 27.4 0.00 0.00 0.00 40 1010.3
20260507165948 18 250 6.4 17.7 0.00 0.00 0.00 42 1010.3
20260507165447 18 270 8.0 25.7 0.00 0.00 0.00 43 1010.4
20260507164448 18 200 6.4 16.1 0.00 0.00 0.00 43 1010.5
20260507163946 18 221 8.0 16.1 0.00 0.00 0.00 46 1010.5
20260507163447 18 254 4.8 17.7 0.00 0.00 0.00 44 1010.5
20260507161444 17 229 11.3 19.3 0.00 0.00 0.00 45 1010.8
20260507160944 17 229 9.7 17.7 0.00 0.00 0.00 49 1010.8
20260507160443 16 212 9.7 16.1 0.00 0.00 0.00 49 1010.8
20260507155942 16 178 6.4 16.1 0.00 0.00 0.00 48 1010.8
20260507155443 16 229 8.0 17.7 0.00 0.00 0.00 49 1010.9
20260507154942 16 249 8.0 17.7 0.00 0.00 0.00 51 1010.9
20260507153941 16 205 8.0 14.5 0.00 0.00 0.00 53 1011.0
20260507153441 16 232 4.8 14.5 0.00 0.00 0.00 50 1011.1
20260507152940 16 229 9.7 14.5 0.00 0.00 0.00 54 1011.2
20260507152441 16 282 9.7 16.1 0.00 0.00 0.00 54 1011.2
20260507151939 15 225 9.7 16.1 0.00 0.00 0.00 54 1011.3
20260507151439 15 237 4.8 17.7 0.00 0.00 0.00 57 1011.3
20260507150939 15 237 6.4 19.3 0.00 0.00 0.00 57 1011.4
20260507150439 15 248 9.7 19.3 0.00 0.00 0.00 56 1011.6
20260507145938 15 294 9.7 17.7 0.00 0.00 0.00 58 1011.6
20260507145437 15 306 4.8 17.7 0.00 0.00 0.00 61 1011.7
20260507144937 14 244 11.3 16.1 0.00 0.00 0.00 58 1011.6
20260507143937 13 344 8.0 14.5 0.00 0.00 0.00 64 1011.7
20260507143437 13 279 6.4 17.7 0.00 0.00 0.00 64 1011.6
20260507142936 12 221 9.7 17.7 0.00 0.00 0.00 63 1011.7
20260507142436 12 257 3.2 17.7 0.00 0.00 0.00 66 1011.7
20260507141936 12 203 8.0 19.3 0.00 0.00 0.00 66 1011.7
20260507141435 12 194 9.7 22.5 0.00 0.00 0.00 65 1011.8
20260507140434 11 230 9.7 19.3 0.00 0.00 0.00 67 1011.9
20260507135433 11 215 12.9 20.9 0.00 0.00 0.00 68 1011.8
20260507134934 11 262 9.7 19.3 0.00 0.00 0.00 68 1011.8
20260507134434 11 225 11.3 19.3 0.00 0.00 0.00 69 1011.9
20260507133933 10 273 9.7 20.9 0.00 0.00 0.00 71 1011.8
20260507133433 10 284 11.3 20.9 0.00 0.00 0.00 71 1011.9
20260507132932 10 225 8.0 24.1 0.00 0.00 0.00 73 1012.0
20260507132429 10 225 12.9 24.1 0.00 0.00 0.00 73 1011.9
20260507131426 9 257 8.0 20.9 0.00 0.00 0.00 75 1011.8
20260507130926 9 209 9.7 20.9 0.00 0.00 0.00 76 1012.1
20260507130426 8 221 8.0 19.3 0.00 0.00 0.00 77 1012.1
20260507125925 8 231 9.7 19.3 0.00 0.00 0.00 76 1012.1
20260507125424 8 203 11.3 17.7 0.00 0.00 0.00 77 1012.1
20260507124924 8 192 9.7 17.7 0.00 0.00 0.00 78 1012.1
20260507124425 8 262 8.0 16.1 0.00 0.00 0.00 79 1012.1
20260507123925 8 207 9.7 17.7 0.00 0.00 0.00 79 1012.1
20260507122923 7 226 8.0 17.7 0.00 0.00 0.00 80 1012.1
20260507122423 7 217 8.0 16.1 0.00 0.00 0.00 80 1012.1
20260507121421 7 226 4.8 14.5 0.00 0.00 0.00 80 1012.2
20260507120920 7 221 6.4 14.5 0.00 0.00 0.00 80 1012.2
20260507120422 7 221 6.4 12.9 0.00 0.00 0.00 80 1012.1
20260507115919 7 203 4.8 11.3 0.00 0.00 0.00 80 1012.1
20260507115419 7 196 4.8 11.3 0.00 0.00 0.00 80 1012.1
20260507114918 7 232 4.8 12.9 0.00 0.00 0.00 80 1012.1
20260507114418 7 257 4.8 12.9 0.00 0.00 0.00 80 1012.2
20260507113919 7 193 4.8 9.7 0.00 0.00 0.00 80 1012.2
20260507113417 7 225 6.4 12.9 0.00 0.00 0.00 80 1012.3
20260507112916 7 212 6.4 12.9 0.00 0.00 0.00 79 1012.2
20260507112415 7 255 4.8 11.3 0.00 0.00 0.00 79 1012.2
20260507111916 7 261 4.8 12.9 0.00 0.00 0.00 79 1012.3
20260507111415 7 238 4.8 14.5 0.00 0.00 0.00 79 1012.2
20260507110914 7 230 8.0 14.5 0.00 0.00 0.00 79 1012.2
20260507110414 7 214 6.4 11.3 0.00 0.00 0.00 79 1012.2
20260507105413 7 207 4.8 11.3 0.00 0.00 0.00 78 1012.3
20260507104912 7 265 6.4 11.3 0.00 0.00 0.00 78 1012.2
20260507104412 7 221 4.8 11.3 0.00 0.00 0.00 78 1012.3
20260507103411 7 214 4.8 12.9 0.00 0.00 0.00 78 1012.2
20260507102911 7 241 3.2 14.5 0.00 0.00 0.00 77 1012.2
20260507102410 7 250 8.0 14.5 0.00 0.00 0.00 77 1012.2
20260507101910 7 223 3.2 11.3 0.00 0.00 0.00 77 1012.2
20260507100909 7 250 4.8 11.3 0.00 0.00 0.00 77 1012.2
20260507100409 7 254 4.8 9.7 0.00 0.00 0.00 77 1012.2
20260507095909 7 219 4.8 9.7 0.00 0.00 0.00 76 1012.3
20260507095408 7 196 6.4 11.3 0.00 0.00 0.00 76 1012.3
20260507094908 7 232 6.4 11.3 0.00 0.00 0.00 76 1012.3
20260507094407 7 225 6.4 11.3 0.00 0.00 0.00 75 1012.4
20260507093406 7 219 4.8 11.3 0.00 0.00 0.00 75 1012.4
20260507092906 7 229 6.4 11.3 0.00 0.00 0.00 76 1012.5
20260507091905 7 201 4.8 11.3 0.00 0.00 0.00 76 1012.5
20260507091405 7 265 4.8 11.3 0.00 0.00 0.00 76 1012.6
20260507090905 7 265 4.8 11.3 0.00 0.00 0.00 77 1012.6
20260507090404 6 201 3.2 11.3 0.00 0.00 0.00 77 1012.6
20260507085904 6 219 4.8 8.0 0.00 0.00 0.00 77 1012.7
20260507085403 6 214 3.2 8.0 0.00 0.00 0.00 77 1012.8
20260507084904 6 210 3.2 6.4 0.00 0.00 0.00 77 1012.9
20260507084404 5 234 1.6 6.4 0.00 0.00 0.00 75 1013.0
20260507083902 5 178 1.6 3.2 0.00 0.00 0.00 75 1013.0
20260507083402 5 221 0.0 3.2 0.00 0.00 0.00 74 1013.1
20260507082856 5 137 0.0 3.2 0.00 0.00 0.00 74 1013.3
20260507082357 5 161 1.6 3.2 0.00 0.00 0.00 74 1013.3
20260507081855 5 178 0.0 3.2 0.00 0.00 0.00 73 1013.4
20260507080855 5 196 1.6 3.2 0.00 0.00 0.00 73 1013.5
20260507080355 5 146 1.6 3.2 0.00 0.00 0.00 73 1013.6
20260507075356 5 119 0.0 1.6 0.00 0.00 0.00 72 1013.8
20260507074354 5 178 0.0 4.8 0.00 0.00 0.00 73 1013.8
20260507073854 5 119 0.0 3.2 0.00 0.00 0.00 72 1013.8
20260507072353 5 178 0.0 1.6 0.00 0.00 0.00 72 1013.9
20260507071847 5 126 0.0 1.6 0.00 0.00 0.00 72 1014.0
20260507071347 5 298 0.0 3.2 0.00 0.00 0.00 73 1014.2
20260507070846 5 119 1.6 3.2 0.00 0.00 0.00 73 1014.2
20260507070347 5 162 1.6 4.8 0.00 0.00 0.00 74 1014.1
20260507065846 5 129 1.6 6.4 0.00 0.00 0.00 75 1014.2
20260507065345 5 83 3.2 6.4 0.00 0.00 0.00 75 1014.3
20260507064841 5 137 3.2 4.8 0.00 0.00 0.00 74 1014.5
20260507064341 5 124 3.2 4.8 0.00 0.00 0.00 74 1014.5
20260507063339 5 119 1.6 4.8 0.00 0.00 0.00 74 1014.5
20260507062338 5 111 1.6 4.8 0.00 0.00 0.00 76 1014.6
20260507061838 5 117 1.6 4.8 0.00 0.00 0.00 76 1014.6
20260507061338 4 121 3.2 4.8 0.00 0.00 0.00 76 1014.7
20260507060837 4 115 3.2 4.8 0.00 0.00 0.00 77 1014.8
20260507060337 4 111 1.6 4.8 0.00 0.00 0.00 76 1014.8
20260507055837 4 238 0.0 4.8 0.00 0.00 0.00 76 1014.8
20260507055337 4 124 1.6 4.8 0.00 0.00 0.00 76 1014.8
20260507054839 4 83 3.2 4.8 0.00 0.00 0.00 77 1014.8
20260507054337 4 111 1.6 4.8 0.00 0.00 0.00 77 1014.9
20260507053336 4 238 0.0 3.2 0.00 0.00 0.00 77 1014.9
20260507052837 4 153 1.6 4.8 0.00 0.00 0.00 78 1014.9